Location: Foligno
(42.9600°N, 12.7050°E)
Time: 13:04:12
(UTC+02:00)

ISS - Visible Passes

Search period start: 18 October 2019 00:00
Search period end: 27 October 2019 23:00
Orbit: 411 x 421 km, 51.6° (Epoch: 18 October)

Date Brightness Start Highest point End Pass type
(mag) Time Alt. Az. Time Alt. Az. Time Alt. Az.
22 Oct -0.6 06:50:01 10° SSE 06:51:50 14° SE 06:53:39 10° E visible
24 Oct -2.2 06:47:54 10° SSW 06:51:01 36° SE 06:54:08 10° ENE visible
25 Oct -1.4 05:59:53 10° S 06:02:31 21° SE 06:05:09 10° E visible
26 Oct -0.8 05:13:36 12° SE 05:14:04 13° SE 05:15:37 10° ESE visible
26 Oct -3.8 06:46:59 10° WSW 06:50:21 85° NW 06:53:43 10° NE visible
27 Oct -3.3 05:00:32 34° SSW 05:01:43 57° SE 05:05:02 10° ENE visible
